This is the latest recevied weather packets stored in our database for station/object CH73TE-13. If no packets are shown the sender has not sent any weather packets the latest 1 day(s).
| Time | Temp. | Humidity | Pressure | Rain* | Wind** | Luminosity | Snow |
|---|---|---|---|---|---|---|---|
| 1778173621 | 17.78° C | 50% | 969 hPa | 0.25 mm | - | 0 W/m² | - |
| 1778173321 | 18.33° C | 49% | 969 hPa | 0.25 mm | - | 0 W/m² | - |
| 1778172960 | 18.89° C | 48% | 969 hPa | 0.25 mm | - | 0 W/m² | - |
| 1778172660 | 18.89° C | 49% | 969 hPa | 0.25 mm | - | 0 W/m² | - |
| 1778172360 | 18.89° C | 48% | 969 hPa | 0.25 mm | - | 0 W/m² | - |
| 1778172061 | 18.89° C | 49% | 969 hPa | 0.25 mm | - | 0 W/m² | - |
| 1778171761 | 18.89° C | 48% | 969 hPa | 0.25 mm | - | 0 W/m² | - |
| 1778171461 | 18.89° C | 48% | 969 hPa | 0.25 mm | - | 0 W/m² | - |
| 1778171160 | 18.89° C | 48% | 969 hPa | 0.25 mm | - | 0 W/m² | - |
| 1778170860 | 18.89° C | 49% | 969 hPa | 0.25 mm | - | 0 W/m² | - |
| 1778170501 | 18.33° C | 50% | 969 hPa | 0.25 mm | - | 0 W/m² | - |
| 1778170201 | 18.33° C | 49% | 969 hPa | 0.25 mm | - | 0 W/m² | - |
| 1778169900 | 18.89° C | 49% | 969 hPa | 0.25 mm | - | 0 W/m² | - |
| 1778169600 | 18.33° C | 51% | 969 hPa | 0.25 mm | - | 0 W/m² | - |
| 1778169300 | 18.33° C | 49% | 969 hPa | 0.25 mm | - | 0 W/m² | - |
| 1778169001 | 18.33° C | 50% | 969 hPa | 0.25 mm | - | 0 W/m² | - |
| 1778168701 | 18.33° C | 53% | 969 hPa | 0.25 mm | - | 0 W/m² | - |
| 1778168401 | 18.33° C | 51% | 969 hPa | 0.25 mm | - | 0 W/m² | - |
| 1778168100 | 18.33° C | 51% | 969 hPa | 0.25 mm | - | 0 W/m² | - |
| 1778167741 | 19.44° C | 49% | 969 hPa | 0.25 mm | - | 0 W/m² | - |
| 1778167441 | 19.44° C | 49% | 969 hPa | 0.25 mm | - | 0 W/m² | - |
| 1778167141 | 19.44° C | 49% | 969 hPa | 0.25 mm | - | 0 W/m² | - |
| 1778166841 | 19.44° C | 50% | 969 hPa | 0.25 mm | - | 0 W/m² | - |
| 1778166540 | 19.44° C | 50% | 969 hPa | 0.25 mm | - | 0 W/m² | - |
| 1778166240 | 18.89° C | 50% | 969 hPa | 0.25 mm | - | 0 W/m² | - |
* Rain since midnight (hover to see other rain measurements)
** Current wind speed in m/s (hover to see current wind gust speed)